Location: Flaumont-Waudrechies
(50.1265°N, 3.9675°E)
Time: 19:28:16
(UTC+00:00)

Daily predictions for brighter satellites

Satellite Brightness Start Highest point End
(mag) Time Altitude Azimuth Time Altitude Azimuth Time Altitude Azimuth
COSMOS 2406 4.3 16:24:36 10° NNW 16:29:07 23° NE 16:33:38 10° E
Cosmos 1833 Rocket 3.0 16:23:50 10° NNW 16:29:30 75° WSW 16:35:07 10° SSE
Cosmos 407 Rocket 4.3 16:26:16 10° SSE 16:30:45 31° ESE 16:35:13 10° NE
Cosmos 1484 Rocket 2.6 16:28:36 10° SSE 16:32:07 83° WSW 16:35:41 10° NNW
Cosmos 2016 Rocket 4.1 16:25:51 10° S 16:32:09 78° E 16:38:33 10° NNE
Cosmos 1812 4.1 16:32:01 10° ESE 16:32:56 11° E 16:33:51 10° ENE
CBERS-1 4.1 16:29:25 10° SSE 16:34:32 89° E 16:39:42 10° NNW
Tsikada Rocket 4.1 16:28:32 10° N 16:34:58 73° ENE 16:41:19 10° SSE
Cosmos 1606 4.1 16:33:25 10° SW 16:35:41 24° WNW 16:37:57 10° NNW
Cosmos 2084 Rocket 3.5 16:35:12 10° SW 16:39:23 75° NW 16:43:36 10° NE
SMAP 3.1 16:37:47 10° SSE 16:42:20 58° ENE 16:46:56 10° N
Cosmos 44 Rocket 4.3 16:39:23 10° S 16:43:26 28° ESE 16:47:35 10° ENE
Cosmos 540 Rocket 3.6 16:39:01 10° NNW 16:44:04 53° ENE 16:49:03 10° SE
SJ 16-02 3.1 16:43:56 10° SE 16:46:04 14° E 16:47:54 11° ENE
SPOT 1/Viking Rocket 4.4 16:42:57 10° ESE 16:47:17 28° ENE 16:51:38 10° N
Cosmos 1869 3.8 16:44:40 10° SSE 16:47:48 31° E 16:50:56 10° NNE
YAOGAN 1 3.9 16:46:18 10° ESE 16:49:09 18° ENE 16:52:00 10° NNE
IGS 5A 3.4 16:45:28 10° SSE 16:49:27 83° WSW 16:53:27 10° NNW
Cosmos 1763 Rocket 3.4 16:47:18 10° NNW 16:52:33 72° ENE 16:57:41 10° SSE
SL-16 R/B 2.7 16:46:22 10° NNE 16:52:40 83° WNW 16:58:55 10° SSW
Landsat 7 3.8 16:49:57 10° SSE 16:54:30 56° ENE 16:59:04 10° N
SAR-Lupe-5 4.3 16:52:06 10° NNE 16:54:43 81° WNW 16:57:22 10° SSW
Timation 1 Rocket 4.3 16:52:11 10° NNW 16:58:11 77° ENE 17:04:09 10° SE
RESURS DK-1 2.2 16:54:13 10° NNW 16:58:15 79° ENE 17:02:15 10° SE
Cosmos 1140 Rocket 3.5 16:54:26 10° SSW 16:59:37 87° WNW 17:04:48 10° NNE
Aureole 3 Rocket 3.3 16:58:16 10° SSE 17:00:51 26° E 17:03:38 10° NNE
CZ-4C R/B 3.3 16:56:46 10° W 17:01:06 32° NNW 17:06:33 10° NE
UNK 3.7 17:01:01 10° NNE 17:05:41 77° ESE 17:10:16 10° S
Meteor 1-28 Rocket 3.6 17:02:30 10° N 17:05:49 55° WNW 17:09:06 10° SSW
SJ-6F 4.4 17:02:37 10° SE 17:06:24 50° ENE 17:10:14 10° N
Meteor 2-12 Rocket 4.4 17:02:51 10° N 17:08:59 75° ENE 17:15:03 10° SSE
Cosmos 1400 Rocket 4.0 17:07:29 10° SE 17:10:18 20° E 17:11:08 19° ENE
SJ-12 3.6 17:07:04 10° SSE 17:10:51 77° ENE 17:14:39 10° N
Cosmos 1536 Rocket 4.1 17:07:33 10° N 17:11:37 34° ENE 17:15:39 10° SE
SAR-Lupe-3 3.9 17:13:47 18° NNE 17:15:32 47° ESE 17:18:05 10° S
Helios 1A Rocket 4.4 17:16:48 14° ESE 17:16:48 14° ESE 17:17:51 10° SE
Okean 2 Rocket 4.0 17:14:04 10° SE 17:17:40 25° E 17:20:03 16° NE
IRS-1C 4.3 17:16:40 10° SSE 17:21:59 79° WSW 17:27:21 10° NNW
ATLAS CENTAUR R/B 3.4 17:23:29 10° NW 17:25:15 13° NNW 17:27:02 10° N
SL-12 R/B(2) 4.3 17:18:30 10° SSW 17:26:28 75° SE 17:35:47 12° NE
COSMO-SKYMED 1 3.4 17:26:49 24° ENE 17:27:35 26° E 17:31:04 10° SSE
Resurs 01 Rocket 3.3 17:30:11 17° NE 17:30:11 17° NE 17:32:01 10° NNE
Cosmos 1943 Rocket 2.1 17:24:29 10° SSW 17:30:05 76° ESE 17:35:17 12° NNE
Timation 2 Rocket 4.2 17:24:34 10° SSW 17:31:27 81° ESE 17:38:19 10° NNE
Cosmos 841 Rocket 3.7 17:28:10 10° NNW 17:33:17 47° ENE 17:38:19 10° SE
Cosmos 2058 2.6 17:29:42 10° N 17:33:41 73° ENE 17:37:40 10° SSE
Cosmos 2251 Rocket 3.6 17:28:59 10° S 17:34:09 57° ESE 17:38:36 14° NNE
SJ-7 4.4 17:32:57 10° SE 17:36:26 43° ENE 17:39:58 10° N
BREEZE-M DEB (TANK) 2.5 17:34:47 10° WSW 17:37:19 60° SSE 17:39:49 26° E
Cosmos 2082 Rocket 2.1 17:32:49 10° NNW 17:38:28 89° NE 17:44:06 10° SSE
ATLAS 2AS CENTAUR R/B 3.2 17:32:36 10° NW 17:38:59 39° NNE 17:42:14 25° E
Cosmos 1346 Rocket 4.1 17:36:56 10° N 17:38:39 21° NNE 17:38:39 21° NNE
IRAS Rocket 4.2 17:38:04 10° SSE 17:43:34 64° ENE 17:49:02 10° NNW
Cosmos 2278 Rocket 2.2 17:37:54 10° SSW 17:43:35 89° ESE 17:48:32 14° NNE
Cosmos 1602 3.3 17:41:55 10° NNW 17:44:58 71° W 17:48:00 10° S
MOS 1 Rocket 3.2 17:41:22 10° S 17:45:42 81° WSW 17:50:17 10° NNW
Cosmos 468 Rocket 4.1 17:42:26 10° NNW 17:47:39 76° WSW 17:52:46 10° SSE
Cosmos 1464 Rocket 3.9 17:43:59 10° S 17:50:12 68° E 17:56:24 10° NNE
ARIANE 5 R/B 3.7 17:46:02 10° S 17:50:47 44° W 17:55:35 10° NNW
CZ-2D R/B 3.3 17:47:19 10° SSE 17:51:29 82° ENE 17:55:43 10° NNW
Cosmos 2369 Rocket 4.2 17:49:45 10° SE 17:50:08 11° SE 17:50:08 11° SE
USA 215 4.2 17:48:50 10° SSE 17:55:05 48° SW 18:01:24 10° WNW
Cosmos 1862 3.0 17:52:29 10° N 17:56:07 85° W 17:59:45 10° S
PSLV R/B 3.2 17:53:16 10° SSE 17:57:16 67° ENE 18:01:17 10° N
Cosmos 2151 Rocket 3.5 17:56:17 10° S 18:00:46 83° E 18:05:04 11° NNE
Cosmos 1190 Rocket 3.9 17:56:38 10° SSW 18:01:56 81° ESE 18:05:26 22° NNE
ISS -3.9 18:00:34 10° WSW 18:03:52 85° WNW 18:03:52 85° WNW
Cosmos 2034 Rocket 4.0 17:58:07 10° S 18:04:09 59° E 18:10:20 10° NNE
Cosmos 1812 3.5 18:02:19 10° SW 18:05:02 37° WNW 18:06:21 23° NNW
Cosmos 676 Rocket 4.1 17:59:54 10° S 18:05:03 55° ESE 18:06:42 39° NE
SKYMED 2 3.5 18:03:51 16° NNE 18:07:16 89° E 18:11:37 10° SSW
Okean 1 Rocket 2.9 18:03:06 10° S 18:07:27 64° E 18:08:25 49° NE
Cosmos 1656 Rocket 4.0 18:02:33 10° S 18:07:43 41° ESE 18:08:00 41° E
Cosmos 220 Rocket 4.2 18:07:55 10° NNW 18:11:16 49° NNE 18:11:16 49° NNE
Cosmos 407 Rocket 4.5 18:07:32 10° SW 18:12:29 44° WNW 18:17:08 11° NNE
USA 281 3.5 18:11:29 38° E 18:13:02 44° NE 18:19:12 10° NNW
Sich 1 Rocket 3.5 18:08:40 10° S 18:13:12 74° E 18:14:56 37° NNE
COSMOS 2406 3.1 18:08:26 10° NNW 18:14:10 88° WSW 18:19:01 15° SSE
Cosmos 1954 Rocket 3.9 18:09:05 10° SSW 18:14:21 83° ESE 18:16:53 32° NNE
Cosmos 1092 Rocket 3.9 18:09:56 10° N 18:16:08 60° ENE 18:22:15 10° SSE
BlueWalker 3 4.2 18:14:56 10° S 18:15:40 14° S 18:15:40 14° S
SL-19 R/B 4.1 18:13:36 10° SSE 18:18:48 79° WSW 18:24:04 10° NNW
Cosmos 2026 Rocket 3.8 18:15:04 10° N 18:21:10 72° ENE 18:27:18 10° SSE
SJ 16-02 1.4 18:19:16 10° SSW 18:23:34 75° WNW 18:24:29 54° N
Cosmos 44 Rocket 3.8 18:19:49 10° WSW 18:24:33 56° NW 18:26:13 37° NNE
YAOGAN 1 2.9 18:20:21 10° S 18:24:34 63° W 18:28:49 10° NNW
SPOT 1/Viking Rocket 4.3 18:21:19 10° S 18:26:21 52° W 18:31:27 10° NNW
Cosmos 2344 3.8 18:24:18 10° NW 18:32:09 85° NE 18:38:34 26° SE
Cosmos 2297 Rocket 4.3 18:31:37 10° N 18:33:09 13° NNE 18:33:09 13° NNE
Meteor 2-3 Rocket 3.7 18:31:23 10° NNW 18:37:07 80° W 18:42:43 10° S
Resurs 1-3 4.4 18:34:58 10° S 18:39:08 48° W 18:43:19 10° NNW
Cosmos 1400 Rocket 4.1 18:41:59 10° SW 18:45:32 37° WNW 18:45:47 36° WNW
Cosmos 304 Rocket 4.1 18:43:46 10° SW 18:48:26 61° WNW 18:48:47 59° NW
Cosmos 371 Rocket 3.6 18:45:32 10° SW 18:50:18 61° WNW 18:50:35 60° NW
CZ-4C R/B 3.9 18:46:39 10° NW 18:51:12 24° N 18:51:50 23° NNE
Okean 2 Rocket 4.4 18:51:23 10° SW 18:55:28 37° WNW 18:57:21 25° NNW
COSMO-SKYMED 1 3.9 19:03:10 35° WNW 19:03:10 35° WNW 19:06:45 10° SW
Resurs 01 Rocket 3.6 19:07:36 22° NNW 19:07:36 22° NNW 19:09:15 10° NNW
BREEZE-M DEB (TANK) 4.0 19:08:43 10° W 19:11:47 69° WSW 19:11:47 69° WSW
Cosmos 1943 Rocket 4.0 19:09:47 10° W 19:14:24 26° NW 19:16:48 19° N
Cosmos 2278 Rocket 4.2 19:23:58 10° W 19:28:25 23° NW 19:30:23 19° NNW
ATLAS 2AS CENTAUR R/B 2.8 19:23:38 10° NW 19:29:41 68° W 19:29:41 68° W
Cosmos 2369 Rocket 4.4 19:31:00 10° SSW 19:31:59 16° SSW 19:31:59 16° SSW
USA 281 4.0 19:58:22 47° W 19:58:22 47° W 20:03:52 10° NW
SJ 16-02 4.5 20:00:34 10° WNW 20:01:04 11° WNW 20:01:04 11° WNW
